Location: Sungai Bunut
(2.6333°N, 113.7333°E)
Time: 00:59:40
(UTC+00:00)

S-56A Canister/Altair - Pass Details

Date: 04 December 2023
Orbit: 640 x 2488 km, 38.9° (Epoch: 24 February)

Event Time Altitude Azimuth Distance (km) Brightness Sun altitude
Rises 01:58:10 0° 248° (WSW) 4,341 11.2 48.4°
Reaches altitude 10° 02:02:01 10° 259° (W) 3,039 10.4 49.1°
Maximum altitude 02:07:47 27° 315° (NW) 1,664 9.2 50.2°
Drops below altitude 10° 02:12:12 10° 13° (NNE) 2,272 9.9 51.1°
Sets 02:14:40 0° 26° (NNE) 3,064 10.5 51.5°
